Location: Agendoh
(31.0664°N, 8.9343°W)
Time: 22:23:13
(UTC+00:00)

Lacrosse 5 - Pass Details

Date: 04 July 2022
Orbit: 714 x 724 km, 57.0° (Epoch: 09 March)

Event Time Altitude Azimuth Distance (km) Brightness Sun altitude
Rises 20:23:12 0° 337° (NNW) 3,138 6.2 -8.2°
Reaches altitude 10° 20:26:23 10° 357° (N) 2,214 4.9 -8.8°
Maximum altitude 20:29:45 17° 39° (NE) 1,757 3.8 -9.4°
Drops below altitude 10° 20:33:06 10° 81° (E) 2,206 4.0 -10.0°
Enters shadow 20:34:03 - 88° (E) 2,452 4.1 -10.1°
